Belmar-Farmingdale, NJ

5:47 AM EST on December 09, 2019 (GMT -0500)
Allaire

Weather History for KBLM - November, 2019

Change the Weather History Date:

Thursday, November 21, 2019

  Actual Average Record
Temperature  
Mean Temperature 44 °F -  
Max Temperature 53 °F 50 °F 64 °F (2003)
Min Temperature 35 °F 36 °F 24 °F (2000)
Degree Days  
Heating Degree Days 21    
Moisture  
Dew Point 32 °F    
Average Humidity 64    
Maximum Humidity 85    
Minimum Humidity 45    
Precipitation  
Precipitation 0.00 in - - ()
Sea Level Pressure  
Sea Level Pressure 30.14 in    
Wind  
Wind Speed 6 mph ()    
Max Wind Speed 12 mph    
Max Gust Speed -    
Visibility 10.0 miles    
Events      
Averages and records for this station are not official NWS values.
T = Trace of Precipitation, MM = Missing Value Source: Averaged Metar Reports

Daily Weather History Graph

Daily Weather History Graph

Search for Another Location

Airport or City:

Astronomy

Nov. 21, 2019 Rise Set
Actual Time 6:48 AM EST 4:35 PM EST
Civil Twilight 6:19 AM EST 5:05 PM EST
Nautical Twilight 5:45 AM EST 5:38 PM EST
Astronomical Twilight 5:13 AM EST 6:10 PM EST
Moon 12:40 AM EST (11/21) 2:03 PM EST (11/21)
Length of Visible Light 10h 45m
Length of Day
9h 46m
Waning Crescent, 30% of the Moon is Illuminated
Nov 21
Waning Crescent
Nov 26
New
Dec 4
First Quarter
Dec 12
Full
Dec 18
Last Quarter

Hourly Weather History & Observations

Time (EST) Temp. Windchill Dew Point Humidity Pressure Visibility Wind Dir Wind Speed Gust Speed Precip Events Conditions
12:56 AM 37.9 °F 32.1 °F 30.9 °F 76% 30.13 in 10.0 mi NW 8.1 mph - N/A   Clear
1:56 AM 37.0 °F 31.0 °F 30.9 °F 79% 30.14 in 10.0 mi NW 8.1 mph - N/A   Clear
2:56 AM 39.0 °F 32.3 °F 30.9 °F 73% 30.15 in 10.0 mi NW 10.4 mph - N/A   Clear
3:56 AM 36.0 °F 31.1 °F 30.9 °F 82% 30.17 in 10.0 mi NW 5.8 mph - N/A   Clear
4:56 AM 35.1 °F 27.9 °F 30.9 °F 85% 30.18 in 10.0 mi NW 9.2 mph - N/A   Clear
6:56 AM 35.1 °F - 28.9 °F 78% 30.21 in 10.0 mi Calm Calm - N/A   Clear
7:56 AM 39.0 °F 34.0 °F 30.9 °F 73% 30.22 in 10.0 mi WNW 6.9 mph - N/A   Clear
8:56 AM 44.1 °F 39.5 °F 32.0 °F 63% 30.22 in 10.0 mi NNW 8.1 mph - N/A   Clear
9:56 AM 46.0 °F 40.6 °F 32.0 °F 58% 30.22 in 10.0 mi WNW 11.5 mph - N/A   Clear
10:56 AM 48.0 °F - 32.0 °F 54% 30.21 in 10.0 mi NW 5.8 mph - N/A   Clear
11:56 AM 51.1 °F - 30.9 °F 46% 30.18 in 10.0 mi Variable 5.8 mph - N/A   Clear
12:56 PM 52.0 °F - 32.0 °F 47% 30.16 in 10.0 mi West 3.5 mph - N/A   Clear
1:56 PM 53.1 °F - 32.0 °F 45% 30.15 in 10.0 mi West 8.1 mph - N/A   Clear
3:56 PM 51.1 °F - 33.1 °F 50% 30.13 in 10.0 mi WSW 5.8 mph - N/A   Clear
5:56 PM 46.9 °F - 34.0 °F 61% 30.12 in 10.0 mi South 4.6 mph - N/A   Clear
7:56 PM 46.9 °F - 35.1 °F 63% 30.10 in 10.0 mi SW 4.6 mph - N/A   Clear
8:56 PM 46.9 °F - 34.0 °F 61% 30.08 in 10.0 mi SSW 4.6 mph - N/A   Clear
9:56 PM 46.9 °F - 34.0 °F 61% 30.07 in 10.0 mi SW 8.1 mph - N/A   Mostly Cloudy
10:56 PM 46.0 °F 41.4 °F 34.0 °F 63% 30.01 in 10.0 mi South 9.2 mph - N/A   Overcast
11:56 PM 45.0 °F 39.7 °F 34.0 °F 65% 30.02 in 10.0 mi SSW 10.4 mph - N/A   Partly Cloudy